Location: Borovka
(49.7741°N, 14.5280°E)
Time: 00:58:54
(UTC+00:00)

BlueWalker 3 - Pass Details

Date: 25 January 2026
Orbit: 451 x 461 km, 53.2° (Epoch: 13 February)

Event Time Altitude Azimuth Distance (km) Brightness Sun altitude
Rises 18:13:59 0° 260° (W) 2,454 6.8 -23.8°
Reaches altitude 10° 18:16:08 10° 265° (W) 1,583 5.5 -24.2°
Enters shadow 18:18:45 42° 290° (WNW) 652 2.8 -24.6°
